Theta_e
344 353 362 360 359 359 359 359 359 359 361 361 360 359 359 360 360 358 358 359 360 358 357 357 357 356 356 356 356 356 356 356 356 355 355 356 358 351 349 350 353 353 352
345 352 361 360 359 359 358 359 359 359 360 359 358 358 358 358 357 359 360 360 359 355 355 355 355 355 354 354 355 355 355 355 355 356 356 355 356 357 353 352 353 352 355
345 353 355 360 359 357 359 359 359 358 359 358 358 357 357 358 358 360 358 357 355 352 350 348 348 348 348 348 348 349 351 352 354 355 355 352 350 360 355 352 353 356 356
347 351 353 361 361 359 359 358 358 358 358 358 358 358 357 358 358 356 354 353 349 347 345 344 343 343 343 342 343 343 343 345 346 349 352 346 345 358 352 351 352 353 355
346 352 358 359 359 357 357 357 359 359 359 359 356 356 356 356 354 352 350 349 344 342 340 339 337 337 337 337 339 339 340 339 339 337 337 343 346 353 354 353 355 357 357
346 350 358 359 359 358 356 358 360 360 360 356 354 353 353 350 350 349 347 345 341 339 338 337 336 335 334 334 335 335 335 335 335 323 326 337 341 350 351 351 353 355 357
346 349 352 360 360 359 358 358 357 359 355 354 352 350 349 349 347 346 344 340 339 338 337 336 335 334 334 333 333 333 333 334 327 323 323 328 334 343 341 341 343 346 349
347 347 351 359 361 360 358 357 354 353 353 350 349 349 348 347 345 341 339 339 338 336 335 335 334 334 333 333 332 331 332 333 328 323 323 325 337 336 335 336 337 340 344
348 349 350 353 356 356 357 355 352 350 348 347 346 346 346 344 342 340 339 337 336 335 334 333 333 332 333 333 333 332 332 333 329 328 324 324 333 331 330 332 333 336 338
349 350 349 348 347 345 347 350 349 348 347 347 346 345 344 342 341 339 341 336 334 332 330 328 328 329 332 334 335 335 333 336 326 323 323 324 330 330 330 331 331 333 335
347 348 348 346 344 342 341 342 343 342 341 342 339 340 340 333 335 335 333 333 330 328 327 326 327 333 334 337 340 340 337 322 321 321 321 332 327 328 329 329 331 332 332
342 349 347 344 340 338 336 335 334 332 336 336 336 335 334 336 333 332 335 334 332 330 333 332 333 336 332 323 322 327 320 320 320 320 321 332 325 326 327 328 329 330 331
342 347 345 343 340 336 334 337 335 336 337 336 337 336 337 334 334 331 330 329 330 335 327 328 326 325 326 323 322 321 320 320 320 320 324 336 335 327 327 328 328 329 330
342 345 342 340 339 343 338 336 336 335 336 334 335 335 335 331 332 332 329 330 329 327 327 326 324 326 325 323 321 321 320 321 321 321 324 333 334 328 327 327 328 328 329
342 340 339 343 342 343 341 339 338 336 335 335 334 333 331 330 332 331 331 329 328 327 326 325 324 324 323 322 321 321 320 321 322 322 323 331 332 330 327 327 327 328 329
342 338 341 342 346 345 343 341 338 337 336 335 333 332 331 330 332 330 330 329 327 328 327 325 324 323 321 320 320 320 320 321 322 322 322 323 331 332 329 327 327 327 328
339 338 339 338 339 343 342 338 335 334 332 331 330 332 330 332 332 332 329 328 328 328 328 327 324 323 320 320 320 318 319 320 320 321 321 322 324 332 334 328 327 327 328
334 331 332 331 334 334 335 335 334 330 330 331 329 329 330 330 331 331 328 327 328 326 324 322 321 318 318 318 318 317 316 318 319 321 321 323 323 323 325 327 326 327 328
335 331 330 332 328 329 329 333 336 334 331 330 328 326 328 328 327 329 327 327 328 324 323 321 319 319 316 315 314 315 316 316 318 318 321 322 323 323 322 322 324 326 328
332 333 328 328 328 329 335 330 328 327 328 331 331 328 328 328 327 327 325 327 325 323 320 320 319 316 315 314 313 312 314 315 317 319 319 319 319 321 321 323 323 322 330
330 330 326 330 330 330 328 326 326 325 325 329 329 330 328 327 325 325 322 324 323 320 320 320 316 314 312 314 310 310 312 316 320 318 318 318 318 319 320 321 323 322 324
328 327 328 326 327 326 326 327 327 327 327 327 329 327 327 326 324 322 323 320 321 317 319 316 315 311 311 315 308 306 303 309 313 314 317 317 319 317 317 319 322 326 327
325 327 328 327 326 326 325 326 329 329 328 326 326 326 326 325 324 324 322 319 319 318 313 315 315 315 311 312 314 308 304 302 307 313 315 316 317 316 318 319 321 325 326
325 327 329 328 325 326 329 329 325 324 323 323 324 328 324 326 325 323 320 318 318 316 316 314 315 316 314 310 311 313 313 311 304 302 311 314 313 315 318 317 322 324 321
319 318 316 316 316 318 321 319 317 315 320 323 323 324 325 326 322 318 318 317 319 315 318 316 317 316 313 311 311 308 310 310 311 307 303 307 311 314 315 321 324 322 319
317 317 316 314 318 320 321 321 323 323 321 318 318 316 315 316 317 319 316 319 319 317 317 316 318 316 314 314 311 310 308 307 307 306 304 305 307 310 315 317 316 318 319
Wind_Speed
16 14 11 12 12 11 12 12 13 14 14 14 15 15 14 13 13 13 12 11 10 11 12 12 12 12 12 11 11 11 10 9 9 9 10 9 7 3 1 2 7 5 4
16 15 10 12 11 11 11 11 12 13 13 13 14 13 13 13 13 12 12 12 12 13 13 13 13 13 13 12 11 11 10 10 10 10 11 14 17 8 5 1 5 8 4
16 14 13 10 11 11 11 11 12 12 13 13 14 14 13 13 13 12 13 14 15 16 16 15 15 15 14 14 13 13 12 12 11 12 14 13 8 16 10 5 4 8 7
13 11 13 11 11 12 11 11 11 12 13 13 13 14 14 13 14 15 15 15 15 15 15 15 14 14 14 13 13 13 14 15 17 16 13 14 6 12 5 3 3 8 10
12 14 14 12 12 12 12 12 12 12 13 13 14 14 16 16 16 15 14 14 15 15 15 14 14 14 14 13 13 14 15 16 20 20 16 11 10 12 7 5 7 8 9
14 17 14 13 12 12 13 13 12 13 13 14 14 15 15 16 15 14 14 13 14 14 14 14 13 13 13 13 13 13 15 17 21 16 14 7 7 9 8 7 9 11 12
15 16 15 12 12 13 13 13 12 13 13 14 15 15 16 15 14 14 13 14 13 12 12 11 11 11 11 11 12 13 15 17 16 15 14 9 6 8 8 9 11 13 13
16 16 15 13 11 11 11 12 13 13 14 14 14 14 15 13 13 13 12 11 11 11 11 11 12 12 11 11 9 9 11 15 15 15 14 8 10 8 9 11 12 14 16
16 16 15 14 13 12 12 13 13 14 14 13 13 12 13 12 11 11 11 10 10 10 10 11 11 11 12 12 10 10 11 17 14 11 11 9 12 8 8 11 14 17 17
14 16 15 14 14 14 14 13 14 13 13 12 11 11 12 13 12 10 13 10 7 6 5 5 6 9 13 14 13 12 14 19 14 12 10 6 8 10 12 14 16 19 19
12 14 13 15 14 15 14 12 12 12 12 10 8 7 9 3 4 11 8 4 2 2 2 4 5 11 12 15 9 7 16 10 14 11 10 10 7 8 11 14 17 20 20
14 20 15 13 14 14 12 13 10 10 7 3 3 2 1 3 3 6 3 8 5 8 9 9 8 12 12 13 12 15 10 15 12 12 10 8 6 9 13 15 18 21 22
14 11 17 10 7 12 12 8 6 4 4 4 1 6 4 5 6 6 5 4 7 2 9 11 12 11 15 13 14 14 16 15 11 10 13 15 11 13 16 17 20 21 22
16 14 16 12 9 5 8 6 4 4 3 5 7 5 2 4 6 6 6 9 8 8 11 12 10 13 15 17 18 17 18 15 11 10 13 16 11 14 16 18 20 21 21
16 15 15 12 7 6 2 7 3 4 1 7 2 5 6 7 6 8 6 7 8 9 11 11 12 12 15 17 17 18 17 17 16 10 9 19 15 11 16 17 17 19 20
18 14 15 13 9 7 7 6 4 5 2 3 3 7 9 8 7 8 9 8 8 9 11 11 12 12 13 15 17 17 18 16 15 15 11 12 16 15 14 15 16 16 17
17 17 13 12 10 7 8 6 8 6 5 5 8 6 5 7 8 9 10 9 8 9 12 11 12 13 14 15 18 16 15 16 15 15 14 11 11 8 10 9 13 14 15
15 10 5 6 11 8 10 6 7 3 4 2 3 4 11 9 10 9 10 10 10 10 11 12 13 13 14 14 13 13 14 14 16 14 13 10 11 11 11 17 14 14 17
15 9 7 13 11 10 7 6 3 5 6 8 6 5 5 6 11 8 9 10 10 11 11 11 11 14 13 13 10 14 14 12 14 13 8 8 10 7 6 11 17 20 23
12 12 10 9 10 3 6 4 1 2 0 4 3 6 8 7 9 8 8 9 8 8 10 9 10 11 12 10 10 13 14 13 12 7 9 10 10 9 8 6 10 9 19
11 12 11 9 7 4 2 2 2 2 4 4 2 9 5 6 6 8 9 9 9 9 11 9 10 11 9 10 10 10 13 14 5 6 8 9 10 10 12 13 8 7 10
11 12 10 7 4 3 2 2 2 3 6 6 10 6 4 4 6 8 9 8 10 11 9 8 8 9 9 7 5 9 9 12 8 9 8 9 6 9 11 10 11 10 10
11 10 8 6 4 4 2 1 3 6 7 8 8 4 2 5 8 4 5 8 9 8 6 7 6 9 9 10 2 4 6 6 13 9 11 5 6 8 10 13 8 13 13
12 11 7 6 7 6 6 5 6 5 8 5 7 5 4 6 7 9 3 7 6 6 5 6 7 7 8 10 8 4 6 9 4 8 9 4 8 7 10 8 9 10 11
10 7 6 7 8 6 7 5 3 5 7 8 5 5 5 10 9 6 2 5 6 6 6 6 8 8 7 7 7 8 10 8 9 6 11 11 9 5 6 7 7 7 9
7 4 3 4 1 3 4 4 7 8 8 9 9 9 9 7 7 5 2 4 6 6 7 8 6 6 7 7 6 6 7 5 9 5 9 12 12 9 5 5 6 5 7
Wind_Direction
99 111 114 114 113 109 106 104 104 103 102 102 101 100 97 93 89 85 81 78 73 70 66 61 54 46 36 30 22 15 8 360 350 339 324 305 278 227 152 327 303 320 82
108 113 117 118 118 117 111 108 108 107 105 105 106 105 102 99 95 90 82 74 69 65 61 57 53 47 42 32 24 14 3 350 337 321 302 282 242 213 176 209 291 306 340
105 116 133 120 122 123 120 118 117 112 108 109 108 105 101 99 93 87 82 79 76 74 69 63 58 51 44 37 30 20 9 352 328 304 291 273 260 182 175 153 293 300 296
111 122 130 126 125 127 125 125 123 119 118 116 111 108 102 93 91 87 83 80 76 73 67 59 52 46 38 29 21 14 3 348 330 312 283 258 307 133 109 78 311 292 284
127 113 113 120 124 132 134 133 126 122 122 118 111 104 102 98 94 89 85 80 77 70 61 55 47 38 32 25 16 8 357 347 329 305 266 340 338 86 65 22 293 286 277
141 115 127 130 137 139 141 138 130 124 122 113 106 103 101 98 94 87 83 79 74 66 61 51 42 34 26 17 11 3 352 341 324 320 313 322 293 66 47 20 348 322 299
132 122 131 137 144 145 142 135 127 123 114 107 104 106 103 98 95 90 82 76 71 65 55 47 36 25 12 6 0 353 344 336 322 305 308 305 339 62 36 14 348 324 316
130 139 137 139 141 130 129 122 114 110 108 107 107 107 108 104 98 91 86 77 67 55 45 32 22 9 356 346 336 330 329 319 309 307 286 306 78 52 22 360 335 317 312
138 125 141 146 133 119 119 118 110 106 105 107 107 109 106 103 105 102 89 68 52 45 38 26 11 350 331 316 302 303 308 308 304 287 311 298 81 43 11 350 326 309 303
139 151 149 139 149 150 141 112 108 111 110 108 121 132 138 138 142 127 131 64 52 45 38 26 347 329 311 299 284 272 280 294 279 321 310 335 50 18 356 342 321 307 302
162 133 154 148 162 140 132 115 114 116 125 130 150 179 187 52 180 120 102 141 142 221 231 276 283 287 285 301 320 266 280 306 325 315 303 91 59 8 336 323 311 305 302
175 143 146 147 161 132 126 164 144 152 161 121 77 347 82 38 4 331 144 179 196 262 223 260 243 262 353 338 333 323 323 320 309 305 302 73 24 333 316 309 304 301 300
175 149 129 150 150 149 143 164 161 153 154 143 66 352 66 341 13 354 5 0 360 311 354 340 335 347 343 333 325 322 322 317 312 305 304 333 337 328 318 308 303 301 299
166 143 125 155 155 50 120 206 125 176 176 224 72 327 28 323 10 350 10 332 350 357 345 350 338 340 333 326 324 325 322 314 313 311 302 308 328 311 307 304 300 299 296
151 140 133 124 119 117 169 72 321 13 12 31 245 74 4 333 15 341 340 327 336 353 351 341 330 336 322 325 325 321 320 311 308 305 307 306 303 302 291 289 291 293 297
124 135 112 99 89 105 66 40 36 32 13 286 340 32 342 344 8 336 319 340 344 4 346 326 327 324 324 322 318 324 313 310 308 307 306 303 292 271 262 271 277 284 295
105 94 111 116 117 92 82 61 37 14 337 14 13 25 355 352 343 336 326 334 352 348 324 319 328 327 329 325 317 320 316 320 314 308 299 295 293 306 254 270 296 300 300
96 108 100 115 93 99 76 49 63 33 339 327 304 335 1 352 336 334 334 340 2 327 318 332 338 328 321 321 331 327 318 308 297 298 284 327 349 314 357 353 343 314 293
115 93 101 93 93 72 66 82 46 36 360 15 351 346 345 329 324 346 326 330 346 318 336 335 325 323 324 323 327 317 306 299 304 300 354 328 308 13 355 341 311 292 280
103 107 98 90 89 77 100 68 48 254 199 203 269 328 314 344 339 355 323 336 330 330 329 330 321 327 321 304 322 309 317 310 291 310 332 316 330 338 329 278 282 304 305
103 117 114 100 54 52 57 16 340 343 347 308 323 280 354 318 328 325 318 333 339 338 321 327 332 325 316 318 320 323 312 296 306 8 285 341 329 339 310 325 325 310 308
126 131 118 114 127 104 91 147 150 308 298 321 300 287 291 302 323 302 343 333 327 310 330 348 330 315 309 316 329 308 322 313 5 332 333 320 342 324 314 332 309 339 331
135 134 130 87 44 39 37 10 297 296 285 258 250 232 315 307 295 352 333 311 327 309 348 324 306 322 314 320 341 303 314 324 332 317 313 295 337 328 337 325 341 343 352
52 33 37 1 2 2 326 337 335 297 297 326 303 290 303 289 282 269 317 330 319 314 306 331 308 321 315 313 327 321 290 293 308 313 315 359 328 325 323 326 0 16 12
58 49 45 28 12 357 3 2 359 303 266 277 321 319 286 282 282 303 339 307 292 296 310 294 313 330 318 319 348 314 322 319 307 316 313 331 321 339 332 4 8 20 26
50 68 140 173 90 279 271 277 271 294 313 306 315 307 289 324 299 104 263 272 292 279 300 310 314 307 319 323 333 341 332 330 321 305 305 321 323 337 2 39 11 354 12